Simultaneous Nadir Overpasses (SNOs) Predictions

Prediction of SNOs between METOP-A and NOAA-19 Satellite Orbit:

Table of predicted SNOs for the next 14.0 days since TLE Epoch: 6/14/2019
Index Date (METOP-A) Time (METOP-A) Lat,Lon (METOP-A) SZA (METOP-A ) Date (NOAA-19) Time (NOAA-19) Lat,Lon (NOAA-19) SZA (NOAA-19 ) Distance(km) Time Diff (sec)
1 06/16/2019 02:54:09 -79.72, -31.43 123.42 06/16/2019 02:53:02 -79.71, -31.49 123.45 1.97 67
2 06/16/2019 03:44:50 79.71, 135.79 56.56 06/16/2019 03:43:58 79.71, 135.80 56.55 0.26 52
3 06/16/2019 04:35:31 -79.71, -56.87 123.44 06/16/2019 04:35:03 -79.72, -57.04 123.45 3.34 28
4 06/16/2019 05:26:12 79.70, 110.35 56.55 06/16/2019 05:25:59 79.71, 110.25 56.55 2.61 13
5 06/16/2019 06:16:53 -79.70, -82.32 123.46 06/16/2019 06:17:03 -79.69, -82.29 123.46 0.94 10
6 06/16/2019 07:07:34 79.69, 84.90 56.53 06/16/2019 07:07:59 79.69, 84.99 56.54 1.81 25
7 06/16/2019 07:58:15 -79.69,-107.76 123.48 06/16/2019 07:59:04 -79.70,-107.84 123.46 1.88 49
8 06/16/2019 08:48:56 79.67, 59.46 56.51 06/16/2019 08:50:00 79.70, 59.44 56.54 2.42 64
9 06/27/2019 02:26:17 -79.74, -24.49 123.43 06/27/2019 02:25:08 -79.75, -24.56 123.44 2.15 69
10 06/27/2019 03:16:57 79.75, 142.96 56.59 06/27/2019 03:16:02 79.73, 143.03 56.55 3.49 55
11 06/27/2019 04:07:39 -79.73, -49.93 123.45 06/27/2019 04:07:08 -79.73, -49.82 123.44 2.31 31
12 06/27/2019 04:58:19 79.74, 117.51 56.58 06/27/2019 04:58:03 79.73, 117.48 56.56 1.49 16
13 06/27/2019 05:49:01 -79.72, -75.38 123.46 06/27/2019 05:49:09 -79.74, -75.37 123.44 2.34 8
14 06/27/2019 06:39:41 79.73, 92.07 56.56 06/27/2019 06:40:04 79.73, 91.93 56.57 2.85 23
15 06/27/2019 07:30:22 -79.74,-100.55 123.43 06/27/2019 07:31:09 -79.71,-100.63 123.45 2.86 47
16 06/27/2019 08:21:03 79.72, 66.62 56.55 06/27/2019 08:22:04 79.71, 66.67 56.56 1.11 61




NCC Satellite Simultaneous Nadir Overpasses (SNOs) Prediction Service
